Location: Baia Mare
(47.6567°N, 23.5850°E)
Time: 13:56:49
(UTC+03:00)

ISS - Pass Details

Date: 19 July 2019
Orbit: 409 x 418 km, 51.6° (Epoch: 21 July)

Event Time Altitude Azimuth Distance (km) Brightness Sun altitude
Rises 00:04:07 0° 263° (W) 2,349 0.2 -18.6°
Reaches altitude 10° 00:06:15 10° 269° (W) 1,486 -0.7 -18.7°
Maximum altitude 00:09:30 50° 346° (NNW) 532 -2.9 -18.9°
Drops below altitude 10° 00:12:46 10° 64° (ENE) 1,484 -0.9 -19.1°
Sets 00:14:54 0° 70° (ENE) 2,346 0.1 -19.2°
